Dewpoint
45 38 38 31 22 22 19 19 18 42 53 57 59 57 58 59 55 50 62 62 68 68 68 69 70 70 70 70 71 71 70 71 72 72 71 71 70 70 70 70 71 71 71 71 70 69 69 69 69
41 34 31 27 21 16 20 21 32 39 57 59 59 59 58 58 59 55 62 65 65 65 67 67 68 68 69 69 69 69 70 70 70 71 71 71 71 71 70 70 70 70 71 71 71 71 70 68 68
34 35 26 26 22 18 17 26 49 54 56 48 58 60 59 59 60 61 64 63 62 61 62 64 66 67 67 68 67 68 68 68 69 69 70 70 70 71 71 71 70 70 70 71 70 70 71 69 68
29 27 27 21 21 21 20 27 49 49 50 57 58 57 59 61 62 62 62 61 59 57 56 59 62 63 66 66 66 66 65 65 66 68 69 69 69 69 69 69 70 70 70 70 71 70 70 70 69
27 26 23 23 22 22 21 23 34 41 53 56 57 55 58 59 60 60 57 57 54 51 51 55 57 59 63 64 63 61 61 62 62 62 64 66 66 66 67 68 68 69 69 69 69 69 69 70 70
24 26 22 21 22 23 21 25 36 50 54 55 56 55 56 58 55 54 51 50 50 48 48 49 53 54 56 57 59 59 58 58 56 57 59 60 59 60 60 62 62 62 65 68 68 68 68 68 69
23 23 22 22 22 22 20 36 49 50 51 53 55 54 55 54 52 50 49 49 47 47 46 47 48 49 51 54 55 54 54 55 52 53 53 53 53 54 54 56 57 59 60 61 65 68 68 68 68
24 24 22 22 21 20 21 30 31 38 42 53 53 51 52 49 48 48 47 45 44 45 45 46 46 46 46 48 50 50 51 52 48 49 51 50 50 50 50 51 53 55 55 56 58 60 66 67 67
25 19 20 21 20 18 22 30 35 41 42 50 51 52 51 48 47 43 42 42 43 43 43 44 44 45 45 45 47 46 47 49 47 45 49 49 48 48 48 48 49 49 51 52 52 54 58 65 66
19 20 20 22 18 18 21 29 34 40 45 49 48 48 48 47 42 40 39 39 40 41 41 42 43 43 44 44 43 44 44 46 46 44 46 47 45 46 46 46 45 46 47 47 48 49 52 54 58
20 18 21 20 18 19 22 27 33 39 40 47 47 46 45 40 39 39 39 38 39 41 40 41 41 42 42 43 43 43 43 44 44 45 45 45 44 45 45 44 44 45 45 46 46 47 48 50 51
16 16 20 20 18 17 22 30 34 32 36 48 45 41 37 37 38 38 37 37 38 39 39 39 40 40 40 41 41 41 42 41 42 43 45 44 43 43 44 43 44 44 44 44 45 46 47 48 49
15 14 15 17 16 19 29 29 30 34 39 38 35 35 35 35 36 37 38 38 39 39 37 38 39 39 38 38 39 39 39 39 40 41 42 42 41 40 41 42 43 43 42 43 43 44 45 47 48
16 17 14 14 15 19 25 29 30 32 33 33 33 33 34 34 35 36 36 36 37 39 37 37 37 36 36 36 37 37 37 39 39 38 39 37 36 35 36 37 39 38 38 40 41 41 44 44 46
17 15 14 13 12 16 28 27 26 31 32 32 32 33 33 33 35 34 35 36 36 38 37 37 36 35 35 36 36 36 37 37 36 37 35 34 34 33 33 34 35 35 35 36 38 38 38 38 39
15 14 13 13 11 15 20 18 24 30 30 30 31 32 32 32 33 34 35 35 36 36 35 36 35 35 34 35 35 35 36 35 35 35 33 33 33 33 32 33 33 34 34 35 35 35 35 35 35
17 11 12 12 11 10 16 13 20 29 30 30 31 31 30 31 33 34 35 35 35 35 35 34 34 34 34 34 34 34 35 33 33 32 31 31 32 32 31 32 32 33 34 34 34 34 35 34 34
14 12 11 9 9 11 11 12 23 28 29 29 30 30 30 30 32 33 35 34 34 35 35 34 34 33 33 33 33 33 32 32 31 31 30 30 30 30 31 31 32 32 33 32 32 33 33 33 33
18 14 14 16 15 11 10 11 22 26 28 28 29 29 29 29 31 34 35 34 33 34 34 33 32 33 32 31 31 31 31 30 30 30 29 29 30 30 30 31 30 30 30 31 31 31 31 30 31
23 21 19 20 17 12 12 12 22 25 26 27 29 29 29 29 31 33 34 33 33 33 33 33 32 32 31 31 31 31 29 30 29 29 29 29 29 30 29 30 30 29 29 30 31 31 31 30 31
24 22 21 18 12 12 12 11 16 23 24 26 29 29 29 30 31 33 34 33 33 33 33 32 32 32 31 30 29 29 29 29 28 28 28 28 29 29 29 29 30 28 29 30 30 31 33 31 31
24 25 22 16 13 11 11 8 11 19 23 24 27 29 29 30 32 33 33 33 33 33 33 31 32 31 30 30 28 27 27 26 27 28 28 28 28 28 30 28 30 28 29 29 30 30 31 32 30
26 24 20 18 16 14 13 10 11 13 16 22 26 28 29 30 31 33 33 32 33 33 31 30 31 31 30 29 28 27 27 27 27 28 27 27 28 28 28 28 29 28 29 30 31 31 31 33 32
27 23 19 18 17 17 16 14 14 11 12 17 24 28 29 30 32 33 32 33 33 33 30 30 30 30 29 28 28 27 26 26 26 26 26 27 27 28 28 27 27 26 28 29 30 32 32 32 32
25 19 19 17 15 19 19 15 17 14 16 19 23 28 28 30 31 31 31 32 33 30 28 29 29 29 29 28 27 27 26 26 26 26 26 25 27 27 27 26 25 26 28 27 29 29 29 30 30
26 23 23 23 20 18 16 15 16 22 26 26 27 28 29 30 31 31 31 32 31 27 26 28 29 28 27 26 25 26 26 26 26 26 26 26 28 27 27 27 26 26 26 26 26 27 27 28 28
31 27 26 25 30 24 17 16 18 27 27 28 28 29 29 29 30 30 31 32 28 24 26 27 28 28 26 24 24 25 25 25 25 25 25 25 25 24 25 26 23 24 25 24 25 25 25 26 27
36 26 25 31 24 22 23 18 15 23 26 28 28 28 29 29 29 30 31 30 26 23 25 25 26 25 25 24 24 24 25 25 25 24 24 24 23 24 24 25 22 21 22 23 23 24 23 23 24
33 35 35 32 30 24 18 14 24 21 27 28 28 28 29 29 29 30 30 28 25 25 24 24 24 25 24 23 24 24 24 25 23 23 23 23 22 23 23 24 21 20 20 21 21 21 22 22 23
26 25 33 29 27 28 20 17 26 27 30 29 28 29 29 29 30 30 29 27 26 25 25 24 24 24 24 23 24 24 23 24 23 22 22 22 21 22 23 24 21 19 19 20 19 19 20 21 21
Wind_Speed
10 11 2 3 1 3 3 1 3 6 3 3 14 14 14 8 3 4 4 3 9 12 14 17 15 18 17 16 17 16 15 14 12 10 8 7 5 4 3 3 5 4 4 3 3 2 3 4 4
10 2 4 3 1 2 3 3 12 11 18 28 24 18 15 9 8 7 5 6 11 14 16 15 16 17 17 18 17 15 14 14 14 13 12 10 7 4 3 2 2 3 3 3 3 3 2 1 1
2 4 2 2 2 2 3 5 13 23 26 5 10 7 5 4 12 2 11 14 15 16 16 13 15 18 18 17 16 16 17 16 15 14 13 13 12 12 8 6 6 5 5 4 4 4 4 4 3
6 4 5 1 5 5 5 12 13 20 5 10 21 13 7 12 3 7 11 12 12 11 11 15 20 19 16 18 19 18 18 19 18 18 18 17 16 14 12 11 10 8 9 9 8 7 6 5 5
6 4 2 0 4 6 8 8 11 11 6 8 5 9 6 11 18 14 12 12 12 11 13 14 21 21 19 19 18 19 20 19 21 21 21 21 21 21 21 18 18 15 12 11 12 11 9 8 8
3 3 2 4 5 7 5 3 14 5 7 13 18 15 6 12 14 13 13 13 10 11 12 15 18 19 21 20 20 20 21 21 24 23 23 22 23 23 24 24 24 24 22 18 13 12 13 12 11
1 2 2 4 8 8 2 8 9 13 13 7 15 10 9 13 14 16 12 13 14 13 16 16 15 15 16 20 20 21 21 21 23 24 23 23 24 24 24 24 25 24 25 25 23 16 13 14 14
3 2 3 4 3 10 2 5 2 6 6 8 12 9 11 15 18 17 14 14 15 15 17 16 15 14 14 13 18 19 20 20 22 22 21 21 21 22 23 22 23 23 24 24 24 25 21 16 14
3 1 3 5 4 5 5 6 3 4 9 6 4 7 23 25 18 18 17 14 12 16 16 15 15 13 11 13 15 17 19 20 20 20 22 18 16 16 17 20 24 24 24 24 25 25 25 22 15
4 4 6 6 3 3 4 4 8 6 7 8 20 24 29 23 15 17 17 17 14 14 14 12 13 14 12 11 15 16 16 16 16 17 17 15 17 16 17 18 22 22 23 22 23 24 22 21 17
2 8 9 8 5 3 7 6 2 19 6 8 30 28 21 18 15 18 17 16 15 12 13 12 13 13 15 14 15 14 14 14 14 17 17 16 15 14 15 14 15 15 19 15 16 17 16 17 16
5 9 9 9 5 4 8 9 10 1 3 21 22 23 20 20 16 18 18 17 15 14 13 12 13 15 16 15 16 15 13 14 14 15 16 14 13 14 14 14 14 14 15 15 14 12 13 15 16
6 5 3 7 4 7 10 7 8 8 17 24 24 21 21 18 17 14 16 15 14 15 13 13 13 15 14 16 15 15 16 15 14 15 16 16 14 15 14 14 13 13 15 14 15 13 13 14 15
5 9 6 3 4 5 12 8 5 6 19 22 24 22 20 22 21 16 16 16 15 13 12 12 14 13 14 15 16 15 14 14 13 14 16 17 15 16 15 15 14 13 14 14 13 14 12 12 12
7 9 4 10 6 3 13 6 7 23 19 22 21 20 20 20 19 19 18 18 17 13 11 12 13 13 15 14 14 15 14 14 15 13 16 17 16 17 17 15 16 17 17 17 14 14 12 12 12
4 3 9 6 10 7 11 18 9 22 30 25 23 21 21 16 18 17 17 17 15 15 14 12 11 12 12 13 13 14 15 13 12 11 11 13 14 14 14 13 15 16 15 15 15 16 16 14 14
3 10 11 11 10 5 15 8 16 21 22 25 23 20 18 17 14 14 13 15 14 14 14 13 11 11 10 10 12 13 13 13 12 11 12 13 13 14 13 12 13 16 15 15 15 15 15 17 17
11 8 7 13 3 12 16 17 13 26 26 28 19 19 20 21 19 16 15 15 14 12 13 13 11 9 7 6 7 10 13 12 10 11 13 13 12 13 11 12 13 15 14 15 16 18 15 17 18
5 6 6 10 15 11 24 23 23 27 19 21 22 22 21 21 14 15 16 15 15 12 13 11 10 8 9 7 3 3 7 10 11 10 11 12 13 14 13 12 14 15 15 16 16 17 19 17 17
15 16 22 15 20 11 10 22 17 26 35 34 31 25 24 20 19 17 17 13 11 13 14 12 11 10 11 8 5 4 3 6 7 8 10 13 14 15 15 16 15 17 16 16 16 17 17 14 14
16 19 17 17 6 4 4 9 8 16 14 13 19 20 18 24 24 21 20 16 15 13 13 12 11 11 10 10 7 6 5 3 6 10 12 13 15 14 15 17 15 17 15 15 16 16 16 16 15
22 14 21 16 8 15 6 20 12 18 33 23 27 26 24 24 21 20 21 19 17 14 13 14 12 11 10 9 11 11 9 6 6 8 9 11 12 14 14 19 15 16 15 15 15 16 15 15 16
12 16 20 18 12 6 7 8 12 14 22 29 27 32 28 28 27 27 25 21 17 17 17 15 14 12 11 11 9 10 9 7 5 8 12 13 12 13 16 17 16 15 14 15 16 16 16 14 15
17 7 4 2 4 23 12 16 16 22 24 18 26 28 29 27 23 19 19 19 18 16 17 16 14 13 11 9 8 9 9 7 10 11 12 11 10 10 14 16 15 15 16 16 16 15 15 15 16
9 11 10 10 12 23 16 17 33 8 7 14 25 30 28 26 25 25 25 22 20 20 18 15 14 13 10 8 8 7 7 8 8 9 9 9 9 11 14 15 16 16 16 16 17 14 15 16 17
13 17 11 14 13 12 10 15 11 3 9 15 19 26 26 26 25 26 23 21 20 19 18 14 14 14 9 9 8 7 8 7 7 7 6 7 8 10 12 12 14 16 16 16 16 13 15 16 16
7 20 10 6 2 4 6 5 4 5 8 11 19 23 25 27 26 26 21 20 19 19 18 17 15 13 10 9 8 7 7 7 6 6 5 7 9 9 11 13 14 15 16 16 16 14 17 16 16
26 10 8 4 11 11 8 12 14 8 9 13 19 23 22 23 22 21 21 21 16 17 16 14 13 14 11 9 8 7 6 6 6 6 8 10 9 10 12 14 14 15 16 16 16 15 16 17 17
9 24 5 7 4 8 5 8 7 20 21 22 19 22 28 29 27 23 21 17 18 16 16 15 14 14 10 8 8 8 6 6 7 8 9 9 8 10 12 13 14 15 14 16 15 15 17 18 19
3 5 18 9 8 9 3 9 4 17 21 22 26 23 24 23 20 20 21 20 19 19 17 16 13 12 10 9 9 9 8 7 8 9 8 8 10 9 9 11 13 14 14 14 15 16 16 19 20
Wind_Direction
331 326 137 55 193 58 266 228 226 129 85 69 83 113 105 62 87 190 137 81 60 61 54 58 52 49 49 50 49 47 45 45 47 48 51 52 53 74 111 140 148 148 145 146 145 123 102 103 102
328 12 49 79 134 156 267 215 175 170 130 108 92 102 86 77 66 156 119 65 53 62 49 52 53 58 50 48 47 45 44 41 39 35 35 37 32 17 348 295 254 209 196 211 224 203 192 169 204
336 44 39 82 113 194 211 153 143 139 149 150 113 56 58 63 104 116 85 85 57 51 49 27 50 57 55 55 57 52 50 45 42 37 31 29 26 21 6 329 300 287 271 254 256 253 224 231 232
1 10 56 68 261 267 225 145 154 146 112 59 110 81 79 345 80 113 88 79 71 47 38 32 39 41 52 56 54 52 48 44 40 37 38 36 28 18 10 8 355 322 305 293 277 266 256 246 246
42 37 47 57 271 278 292 136 171 155 101 108 102 114 81 56 99 102 86 63 58 42 32 36 43 48 51 57 57 56 49 45 43 39 36 34 28 26 24 20 14 2 345 320 299 290 269 250 239
39 91 10 233 258 281 311 79 167 146 114 121 104 111 90 115 107 94 90 86 72 69 46 46 45 49 52 53 53 49 46 45 42 39 37 33 28 26 25 23 19 16 14 359 327 305 289 266 247
102 96 225 271 290 305 143 84 127 140 135 116 136 112 121 126 118 108 91 76 71 60 57 48 46 45 46 49 49 47 47 48 43 39 36 31 27 25 22 21 19 17 15 13 7 340 310 291 273
113 117 165 241 244 285 161 103 48 86 85 100 133 162 160 150 131 114 93 79 65 57 56 52 47 46 47 46 49 52 51 49 44 39 37 34 29 24 21 20 15 16 15 13 12 5 348 313 289
117 285 228 246 224 265 150 134 51 47 95 63 12 116 126 136 133 117 108 91 75 60 55 52 49 47 49 49 43 44 46 44 38 32 31 32 25 20 18 16 16 14 14 10 6 1 359 356 331
177 190 230 238 262 254 100 117 132 125 120 61 82 102 120 136 140 123 110 99 86 71 57 56 54 51 52 51 44 44 43 42 37 30 31 30 25 21 17 14 14 13 10 9 4 360 358 358 350
187 228 239 256 228 176 142 123 108 134 163 175 147 137 137 135 128 114 106 104 102 93 73 57 59 56 56 52 45 41 42 40 33 30 31 26 23 18 16 12 9 5 6 6 3 358 354 345 341
292 267 226 252 211 150 158 126 135 27 202 130 136 130 131 136 133 127 117 112 108 91 74 59 53 55 52 54 49 47 44 37 34 27 23 20 21 15 12 11 6 7 2 357 354 350 342 338 332
234 286 281 270 175 132 127 129 134 110 117 121 127 127 133 132 128 124 122 117 110 92 73 63 59 56 54 55 49 45 41 39 38 33 28 28 23 14 8 6 6 8 357 354 347 345 339 335 331
296 285 286 290 237 155 151 147 111 155 132 129 136 138 140 140 142 136 127 119 113 111 93 80 73 66 64 59 56 49 43 42 46 39 31 26 21 12 4 356 357 356 350 342 337 335 343 333 329
286 293 291 250 255 200 121 169 201 155 143 140 142 147 149 153 152 148 143 133 130 120 103 89 77 65 66 63 58 52 49 50 44 44 29 23 18 9 0 351 351 347 340 334 332 330 328 325 322
281 268 258 225 215 203 177 218 191 164 153 161 157 158 157 155 154 147 141 134 127 118 98 86 77 70 69 67 62 59 58 54 49 50 33 23 16 10 358 354 348 338 334 332 329 326 323 318 315
237 237 234 276 208 202 201 228 185 171 168 167 169 161 155 150 151 149 142 133 129 122 113 100 81 73 70 73 72 69 68 56 47 41 26 17 13 10 359 354 339 332 330 330 326 322 318 319 316
227 224 225 248 243 211 210 229 175 178 174 178 168 163 163 162 169 159 143 134 125 114 105 93 77 68 66 79 86 77 64 57 43 35 24 15 7 2 353 353 345 340 332 328 323 317 319 312 308
241 248 246 269 281 225 233 224 195 182 179 178 181 176 173 175 172 158 147 134 126 119 115 106 90 62 56 54 42 28 50 43 38 29 18 13 5 2 0 356 349 341 331 322 318 318 318 319 316
245 257 265 285 269 213 231 230 199 180 197 193 185 183 180 171 163 162 155 150 143 139 131 123 102 77 60 59 51 54 54 63 48 19 16 12 8 5 3 354 347 337 329 323 321 318 313 311 320
242 237 249 248 252 269 159 251 196 208 219 181 190 192 184 176 170 169 166 162 148 149 144 127 110 90 78 68 60 45 40 32 7 13 11 4 8 2 358 351 343 337 330 323 323 318 318 319 312
245 223 236 238 227 246 199 259 235 204 212 196 189 193 187 178 175 168 170 165 159 155 140 126 111 101 85 79 75 74 69 52 17 8 358 2 360 358 356 348 343 332 326 326 320 321 315 311 306
239 231 226 229 216 233 224 258 234 220 218 210 192 196 189 181 175 175 174 167 162 151 143 130 116 105 93 78 83 82 77 60 29 15 14 4 350 358 5 347 337 333 327 321 325 323 314 305 294
236 201 123 102 172 252 202 219 245 210 215 216 202 197 185 176 171 164 160 158 156 148 142 135 124 110 95 91 82 80 77 63 39 20 17 6 348 354 0 351 344 342 338 343 334 331 339 326 322
201 178 213 229 208 246 188 213 251 214 226 223 199 190 181 167 161 162 167 167 158 156 150 137 132 119 114 103 83 76 73 64 50 29 15 5 353 357 1 354 353 351 348 343 340 353 346 344 334
211 209 196 216 219 246 192 233 243 246 276 251 200 177 162 158 162 168 171 168 165 158 149 144 136 133 131 107 94 82 77 71 54 33 12 5 352 355 348 349 353 354 352 353 353 359 353 348 346
214 231 230 226 24 314 232 277 280 47 49 105 141 152 161 158 165 172 172 171 163 157 156 153 140 139 133 124 118 96 80 72 61 42 34 25 20 4 354 352 7 1 358 359 1 3 0 356 353
210 169 203 167 205 229 245 247 239 206 184 155 158 162 158 162 167 172 171 168 164 155 150 140 149 145 144 140 117 94 82 72 69 55 43 38 25 7 7 359 13 13 7 2 6 2 2 3 1
186 218 146 173 185 200 248 242 218 210 186 184 176 173 167 174 181 174 169 162 154 150 149 153 150 143 143 127 114 109 96 90 81 65 48 37 29 22 15 6 15 20 12 7 10 8 4 6 3
156 239 179 195 193 206 235 249 308 191 182 177 179 181 184 185 177 168 160 154 157 158 163 162 152 145 143 141 135 120 104 96 77 61 48 38 34 27 20 13 23 25 20 10 16 15 6 7 6